Starlink 4256

operational
NORAD ID: 52994 Int'l Des: 2022-076 Owner: SPXS Country: US Constellation: starlink
LEOCIRCULAR

Über Starlink 4256

Beschreibung wird geladen...

Live-Position

3D-Globus wird geladen...

Nächste Überflüge

Höhenverlauf

Altitude vs Time

uPlot chart will show altitude changes over time

Zweizeiliger Elementsatz

1 52994U 22076J 26036.97143013 .00000519 00000-0 50699-4 0 9999
2 52994 53.2165 236.5110 0001387 98.1768 261.9381 15.08839063198055
Epoch: 5. Feb. 2026 • Age: 24 hours

Aktueller Status

Höhe 542.1 km
Geschwindigkeit 7.60 km/s
Subsatellitenpunkt 36.73°N, 138.01°E
Startdatum 7. Juli 2022
Alter 3.5 years
Typ internet

Technische Details

Klassifizierung Payload
Masse 297.00 kg
Trockenmasse 275.00 kg
Gesamtmasse 297.00 kg
Länge 0.20 m
Durchmesser 2.80 m
Spannweite 9.00 m
Form Box + pan
Hersteller SPXS
Bus-Typ Starlink
Phasenstatus In Orbit
Besitzer/Staat SPXS/US

Große Konstellationen

Loading constellations...